OK1TBF-6 Weather Reports


time (UTC)temp
C
wind
direction
speed
KPH
gust
KPH
rain 1hr
cm
rain 24hr
cm
rain mn
cm
humidity
%
barometer
mb
20260502232004 14 110 6.4 11.3 0.00 0.00 0.00 43 1010.3
20260502231503 14 111 6.4 11.3 0.00 0.00 0.00 43 1010.3
20260502225503 14 111 6.4 9.7 0.00 0.00 0.00 43 1010.3
20260502224503 15 111 6.4 9.7 0.00 0.00 0.00 42 1010.4
20260502224003 14 111 6.4 9.7 0.00 0.00 0.00 43 1010.5
20260502223503 15 111 6.4 11.3 0.00 0.00 0.00 42 1010.4
20260502223004 15 111 6.4 11.3 0.00 0.00 0.00 42 1010.5
20260502222503 15 111 6.4 11.3 0.00 0.00 0.00 41 1010.5
20260502221504 15 112 6.4 9.7 0.00 0.00 0.00 41 1010.5
20260502221003 15 114 6.4 9.7 0.00 0.00 0.00 40 1010.5
20260502220503 15 118 6.4 11.3 0.00 0.00 0.00 40 1010.5
20260502220005 16 120 6.4 11.3 0.00 0.00 0.00 39 1010.5
20260502215504 16 125 6.4 11.3 0.00 0.00 0.00 39 1010.6
20260502215002 16 127 6.4 11.3 0.00 0.00 0.00 39 1010.6
20260502214503 16 122 6.4 11.3 0.00 0.00 0.00 39 1010.6
20260502214003 16 123 6.4 12.9 0.00 0.00 0.00 39 1010.4
20260502213504 16 126 6.4 12.9 0.00 0.00 0.00 39 1010.6
20260502213003 16 128 6.4 12.9 0.00 0.00 0.00 39 1010.7
20260502212502 16 132 8.0 12.9 0.00 0.00 0.00 38 1010.6
20260502212003 16 135 6.4 12.9 0.00 0.00 0.00 39 1010.6
20260502211503 16 131 6.4 12.9 0.00 0.00 0.00 38 1010.6
20260502211002 16 135 6.4 20.9 0.00 0.00 0.00 38 1010.8
20260502210502 16 139 8.0 20.9 0.00 0.00 0.00 39 1011.0
20260502205003 16 138 6.4 17.7 0.00 0.00 0.00 39 1011.0
20260502204504 16 137 6.4 12.9 0.00 0.00 0.00 39 1010.9
20260502204005 16 136 6.4 17.7 0.00 0.00 0.00 39 1010.9
20260502203004 16 138 8.0 12.9 0.00 0.00 0.00 39 1010.8
20260502202505 16 137 8.0 12.9 0.00 0.00 0.00 39 1011.0
20260502202004 16 138 6.4 17.7 0.00 0.00 0.00 39 1011.0
20260502201505 16 140 6.4 17.7 0.00 0.00 0.00 39 1010.9
20260502200506 17 131 6.4 14.5 0.00 0.00 0.00 38 1011.0
20260502200006 17 132 6.4 9.7 0.00 0.00 0.00 38 1010.9
20260502195507 17 133 6.4 9.7 0.00 0.00 0.00 38 1010.9
20260502195006 17 135 6.4 11.3 0.00 0.00 0.00 38 1010.9
20260502194508 17 133 6.4 12.9 0.00 0.00 0.00 37 1011.0
20260502194007 17 133 6.4 12.9 0.00 0.00 0.00 35 1011.0
20260502193508 18 133 6.4 12.9 0.00 0.00 0.00 35 1010.9
20260502193007 18 133 6.4 6.4 0.00 0.00 0.00 34 1011.0
20260502190508 18 128 4.8 9.7 0.00 0.00 0.00 32 1010.9
20260502190008 18 136 6.4 9.7 0.00 0.00 0.00 32 1010.9
20260502185507 18 136 3.2 6.4 0.00 0.00 0.00 32 1010.7
20260502185008 19 135 4.8 6.4 0.00 0.00 0.00 31 1010.7
20260502184507 19 140 3.2 6.4 0.00 0.00 0.00 31 1010.9
20260502184008 19 143 3.2 6.4 0.00 0.00 0.00 30 1011.0
20260502183507 19 136 3.2 6.4 0.00 0.00 0.00 30 1010.9
20260502183007 19 132 3.2 6.4 0.00 0.00 0.00 29 1010.6
20260502182508 19 135 3.2 6.4 0.00 0.00 0.00 29 1010.8
20260502182007 19 136 3.2 6.4 0.00 0.00 0.00 29 1010.8
20260502181508 20 136 3.2 6.4 0.00 0.00 0.00 28 1010.7
20260502180508 20 158 1.6 3.2 0.00 0.00 0.00 29 1010.6
20260502170506 22 229 1.6 3.2 0.00 0.00 0.00 29 1010.9
20260502164007 22 247 0.0 3.2 0.00 0.00 0.00 28 1011.0
20260502163505 22 267 1.6 3.2 0.00 0.00 0.00 28 1011.0
20260502163007 22 297 1.6 6.4 0.00 0.00 0.00 32 1011.2
20260502162507 22 311 1.6 6.4 0.00 0.00 0.00 28 1011.1
20260502161506 22 321 3.2 9.7 0.00 0.00 0.00 30 1011.3
20260502161006 21 299 1.6 9.7 0.00 0.00 0.00 29 1011.5
20260502160507 22 263 3.2 6.4 0.00 0.00 0.00 32 1011.4
20260502152006 22 256 3.2 9.7 0.00 0.00 0.00 31 1011.8
20260502151005 21 274 4.8 12.9 0.00 0.00 0.00 31 1011.9
20260502150506 22 296 1.6 9.7 0.00 0.00 0.00 30 1012.1
20260502130459 21 198 6.4 12.9 0.00 0.00 0.00 33 1013.3
20260502123459 20 257 6.4 12.9 0.00 0.00 0.00 31 1013.5
20260502122958 21 269 3.2 12.9 0.00 0.00 0.00 33 1013.7
20260502122458 21 265 4.8 12.9 0.00 0.00 0.00 33 1013.5
20260502121958 21 161 0.0 6.4 0.00 0.00 0.00 34 1013.8
20260502121457 21 198 0.0 9.7 0.00 0.00 0.00 33 1013.7
20260502120958 20 229 4.8 12.9 0.00 0.00 0.00 33 1013.8
20260502120458 20 261 6.4 12.9 0.00 0.00 0.00 34 1014.0
20260502115458 20 294 4.8 14.5 0.00 0.00 0.00 33 1014.1
20260502114957 20 269 6.4 11.3 0.00 0.00 0.00 34 1014.1
20260502114457 20 257 4.8 11.3 0.00 0.00 0.00 34 1014.2
20260502113957 20 210 4.8 9.7 0.00 0.00 0.00 36 1014.0
20260502113457 20 290 6.4 9.7 0.00 0.00 0.00 33 1014.3
20260502112958 20 314 1.6 11.3 0.00 0.00 0.00 32 1014.3
20260502112457 20 325 4.8 11.3 0.00 0.00 0.00 34 1014.3
20260502111958 21 99 1.6 9.7 0.00 0.00 0.00 31 1014.4
20260502110957 20 133 3.2 11.3 0.00 0.00 0.00 32 1014.6
20260502110457 20 246 3.2 9.7 0.00 0.00 0.00 37 1014.6
20260502105958 19 272 3.2 9.7 0.00 0.00 0.00 37 1014.6
20260502105457 19 281 1.6 12.9 0.00 0.00 0.00 37 1014.7
20260502104957 20 269 4.8 12.9 0.00 0.00 0.00 35 1014.8
20260502104457 19 267 9.7 12.9 0.00 0.00 0.00 37 1014.9
20260502103958 19 249 3.2 11.3 0.00 0.00 0.00 39 1015.0
20260502103456 19 210 3.2 6.4 0.00 0.00 0.00 39 1015.0
20260502102957 18 219 1.6 9.7 0.00 0.00 0.00 39 1014.9
20260502101956 18 293 4.8 12.9 0.00 0.00 0.00 41 1015.1
20260502100958 18 308 4.8 9.7 0.00 0.00 0.00 40 1015.0
20260502100457 18 320 6.4 9.7 0.00 0.00 0.00 41 1015.2
20260502091456 17 210 1.6 9.7 0.00 0.00 0.00 44 1015.7
20260502090457 18 242 4.8 11.3 0.00 0.00 0.00 45 1015.7
20260502071459 16 81 3.2 6.4 0.00 0.00 0.00 54 1016.3
20260502070959 16 90 0.0 6.4 0.00 0.00 0.00 53 1016.2
20260502070459 15 92 4.8 6.4 0.00 0.00 0.00 51 1016.2
20260502065959 15 94 4.8 6.4 0.00 0.00 0.00 50 1016.1
20260502065459 15 93 3.2 9.7 0.00 0.00 0.00 52 1016.3
20260502064500 14 87 6.4 11.3 0.00 0.00 0.00 56 1016.1
20260502064000 13 90 6.4 11.3 0.00 0.00 0.00 56 1016.2
20260502063459 13 90 8.0 11.3 0.00 0.00 0.00 58 1016.1
20260502062959 13 90 8.0 11.3 0.00 0.00 0.00 58 1016.2
20260502062459 13 90 3.2 6.4 0.00 0.00 0.00 60 1016.3
20260502062001 13 90 3.2 6.4 0.00 0.00 0.00 62 1016.3
20260502061000 13 90 1.6 3.2 0.00 0.00 0.00 57 1016.3
20260502060501 13 90 0.0 6.4 0.00 0.00 0.00 59 1016.5
20260502060001 12 93 0.0 6.4 0.00 0.00 0.00 62 1016.4
20260502055501 12 93 3.2 6.4 0.00 0.00 0.00 62 1016.4
20260502055000 12 90 3.2 9.7 0.00 0.00 0.00 62 1016.2
20260502054500 11 90 4.8 9.7 0.00 0.00 0.00 62 1016.1
20260502054000 11 90 6.4 9.7 0.00 0.00 0.00 63 1016.1
20260502053502 11 91 3.2 6.4 0.00 0.00 0.00 64 1016.2
20260502053002 11 103 3.2 6.4 0.00 0.00 0.00 61 1016.2
20260502052502 11 111 3.2 3.2 0.00 0.00 0.00 65 1016.3
20260502052000 11 111 0.0 3.2 0.00 0.00 0.00 65 1016.1
20260502051501 11 99 1.6 12.9 0.00 0.00 0.00 66 1016.2
20260502050501 10 93 9.7 14.5 0.00 0.00 0.00 66 1016.2
20260502050002 10 90 12.9 14.5 0.00 0.00 0.00 66 1016.0
20260502045501 9 90 12.9 14.5 0.00 0.00 0.00 66 1015.9
20260502044501 9 90 9.7 12.9 0.00 0.00 0.00 66 1016.0
20260502042501 10 93 9.7 12.9 0.00 0.00 0.00 62 1015.9
20260502042003 11 90 11.3 11.3 0.00 0.00 0.00 59 1015.8
20260502041502 11 90 8.0 11.3 0.00 0.00 0.00 58 1016.0
20260502041002 11 90 9.7 11.3 0.00 0.00 0.00 59 1015.8
20260502040503 11 90 9.7 11.3 0.00 0.00 0.00 59 1015.7
20260502035503 11 90 11.3 12.9 0.00 0.00 0.00 60 1015.8
20260502035003 11 90 12.9 14.5 0.00 0.00 0.00 61 1015.8
20260502034502 11 90 12.9 14.5 0.00 0.00 0.00 60 1015.9
20260502034002 11 91 11.3 12.9 0.00 0.00 0.00 61 1015.8
20260502033503 11 90 9.7 12.9 0.00 0.00 0.00 61 1016.0
20260502033003 11 93 11.3 12.9 0.00 0.00 0.00 60 1015.8
20260502032504 11 93 9.7 12.9 0.00 0.00 0.00 61 1015.9
20260502032003 11 90 9.7 12.9 0.00 0.00 0.00 60 1015.8
20260502031504 11 90 11.3 12.9 0.00 0.00 0.00 60 1015.9
20260502031003 11 90 11.3 12.9 0.00 0.00 0.00 60 1015.9
20260502030005 10 92 9.7 12.9 0.00 0.00 0.00 61 1016.0
20260502025504 10 92 9.7 12.9 0.00 0.00 0.00 61 1015.9
20260502025005 10 90 9.7 11.3 0.00 0.00 0.00 63 1016.0
20260502024503 10 90 9.7 11.3 0.00 0.00 0.00 64 1016.0
20260502024004 10 96 6.4 6.4 0.00 0.00 0.00 65 1016.0
20260502023505 10 112 1.6 3.2 0.00 0.00 0.00 63 1016.3
20260502023004 10 112 0.0 3.2 0.00 0.00 0.00 64 1016.2
20260502022504 10 112 0.0 3.2 0.00 0.00 0.00 65 1016.2
20260502022004 9 96 0.0 11.3 0.00 0.00 0.00 65 1016.1
20260502021504 9 91 0.0 11.3 0.00 0.00 0.00 66 1016.1
20260502021005 10 90 8.0 11.3 0.00 0.00 0.00 61 1016.1
20260502020505 11 90 9.7 11.3 0.00 0.00 0.00 60 1016.1
20260502020006 11 90 8.0 11.3 0.00 0.00 0.00 60 1015.9
20260502015505 11 90 9.7 11.3 0.00 0.00 0.00 60 1016.2
20260502015005 11 90 6.4 11.3 0.00 0.00 0.00 58 1016.1
20260502014505 11 90 9.7 11.3 0.00 0.00 0.00 59 1016.1
20260502014006 11 90 8.0 11.3 0.00 0.00 0.00 59 1016.1
20260502012507 11 90 11.3 12.9 0.00 0.00 0.00 58 1016.2
20260502012006 11 91 11.3 12.9 0.00 0.00 0.00 59 1016.1
20260502011505 11 92 11.3 12.9 0.00 0.00 0.00 59 1016.4
20260502011005 11 91 11.3 12.9 0.00 0.00 0.00 60 1016.2
20260502010505 11 90 9.7 12.9 0.00 0.00 0.00 59 1016.2
20260502005506 10 93 9.7 11.3 0.00 0.00 0.00 60 1016.4
20260502005006 10 96 8.0 11.3 0.00 0.00 0.00 61 1016.2
20260502004506 10 93 8.0 11.3 0.00 0.00 0.00 61 1016.4
20260502004007 10 91 8.0 11.3 0.00 0.00 0.00 61 1016.3
20260502003007 11 90 8.0 11.3 0.00 0.00 0.00 58 1016.4
20260502002507 11 90 9.7 11.3 0.00 0.00 0.00 57 1016.4
20260502001506 11 90 8.0 9.7 0.00 0.00 0.00 56 1016.4
20260502001007 11 90 6.4 9.7 0.00 0.00 0.00 57 1016.4
20260502000009 11 100 6.4 11.3 0.00 0.00 0.00 56 1016.3
20260501235506 12 102 6.4 11.3 0.00 0.00 0.00 56 1016.4
20260501235008 12 102 6.4 12.9 0.00 0.00 0.00 56 1016.5
20260501234508 12 98 6.4 12.9 0.00 0.00 0.00 56 1016.3
20260501234009 12 91 8.0 11.3 0.00 0.00 0.00 55 1016.4
20260501233507 12 91 8.0 11.3 0.00 0.00 0.00 55 1016.5
20260501233008 12 95 8.0 9.7 0.00 0.00 0.00 53 1016.5